EZY13FX EGGD-LTFE

Flight info

Callsign EZY13FX
Flight time N/A
Altitude 35000
Route HAWFA L607 KONAN DCT KOK UL607 SPI DCT ULNOK DCT VIBOM DCT NOMBO DCT RIDAR DCT RADIZ DCT KUSIB/N0432F370 DCT OKSIG DCT MITNO DCT VABEK UL603 OLOTA DCT RUGAS DCT RIKSO UN127 IMR UG80 OKESA
Aircraft A320/M-SDE2E3FGHIRWXY/LB1

Departure

Time N/A
Airport Bristol Airport (EGGD)

Arrival

Time 2026-04-27 17:55
Airport Milas Bodrum International Airport (LTFE)
Time Latitude Longitude Altitude Speed Heading
2026-04-27 17:39 38.34108 26.98114 35036 ft 451 kts 141°
2026-04-27 17:39 38.31603 27.00499 35026 ft 449 kts 150°
2026-04-27 17:40 38.26023 27.03906 35021 ft 454 kts 159°
2026-04-27 17:40 38.20230 27.07119 34040 ft 455 kts 158°
2026-04-27 17:40 38.17328 27.08735 32803 ft 454 kts 158°
2026-04-27 17:41 38.14457 27.10333 32078 ft 443 kts 158°
2026-04-27 17:41 38.11686 27.11876 31593 ft 428 kts 158°
2026-04-27 17:41 38.08998 27.13368 31096 ft 415 kts 158°
2026-04-27 17:41 38.06391 27.14810 30621 ft 403 kts 158°
2026-04-27 17:42 38.03838 27.16214 30162 ft 399 kts 158°
2026-04-27 17:42 38.01293 27.17611 29648 ft 398 kts 158°
2026-04-27 17:42 37.98736 27.19018 29106 ft 402 kts 158°
2026-04-27 17:42 37.96151 27.20433 27771 ft 410 kts 158°
2026-04-27 17:43 37.93526 27.21873 26671 ft 411 kts 158°
2026-04-27 17:43 37.90909 27.23311 25766 ft 408 kts 158°
2026-04-27 17:43 37.88321 27.24735 24929 ft 403 kts 158°
2026-04-27 17:43 37.86622 27.25671 24394 ft 400 kts 158°
2026-04-27 17:44 37.84088 27.27067 23608 ft 395 kts 158°
2026-04-27 17:44 37.81579 27.28445 22695 ft 391 kts 158°
2026-04-27 17:44 37.79099 27.29803 21826 ft 386 kts 158°
2026-04-27 17:44 37.76650 27.31143 20995 ft 382 kts 158°
2026-04-27 17:45 37.74224 27.32470 20187 ft 377 kts 157°
2026-04-27 17:45 37.71831 27.33781 19419 ft 373 kts 157°
2026-04-27 17:45 37.69460 27.35076 18669 ft 369 kts 157°
2026-04-27 17:45 37.67117 27.36353 17868 ft 365 kts 157°
2026-04-27 17:46 37.64782 27.37563 17058 ft 360 kts 164°
2026-04-27 17:46 37.62339 27.38033 16341 ft 352 kts 183°
2026-04-27 17:46 37.59991 27.37545 15951 ft 335 kts 198°
2026-04-27 17:46 37.57779 27.36746 15369 ft 328 kts 198°
2026-04-27 17:47 37.55596 27.35945 14737 ft 325 kts 198°
2026-04-27 17:47 37.54163 27.35414 14326 ft 323 kts 198°
2026-04-27 17:47 37.51300 27.34348 13470 ft 319 kts 198°
2026-04-27 17:47 37.49185 27.33561 12826 ft 315 kts 198°
2026-04-27 17:48 37.47095 27.32788 12174 ft 311 kts 198°
2026-04-27 17:48 37.45030 27.32026 11530 ft 308 kts 197°
2026-04-27 17:48 37.42990 27.31272 10896 ft 304 kts 198°
2026-04-27 17:48 37.40955 27.30517 10109 ft 305 kts 197°
2026-04-27 17:49 37.38917 27.29760 9285 ft 305 kts 197°
2026-04-27 17:49 37.36878 27.29017 8441 ft 304 kts 194°
2026-04-27 17:49 37.34792 27.28938 7646 ft 301 kts 165°
2026-04-27 17:49 37.32997 27.30200 6870 ft 298 kts 133°
2026-04-27 17:50 37.32005 27.32430 6065 ft 295 kts 102°
2026-04-27 17:50 37.32280 27.37415 4818 ft 275 kts 97°
2026-04-27 17:50 37.31651 27.39604 4444 ft 261 kts 114°
2026-04-27 17:51 37.30993 27.41655 4081 ft 246 kts 104°
2026-04-27 17:51 37.30518 27.43668 3730 ft 235 kts 104°
2026-04-27 17:51 37.30075 27.45593 3406 ft 225 kts 103°
2026-04-27 17:51 37.29642 27.47440 3088 ft 217 kts 103°
2026-04-27 17:52 37.29221 27.49220 2796 ft 208 kts 104°
2026-04-27 17:52 37.28818 27.50920 2501 ft 198 kts 104°
2026-04-27 17:52 37.28437 27.52528 2208 ft 185 kts 104°
2026-04-27 17:52 37.28085 27.54014 1960 ft 169 kts 105°
2026-04-27 17:53 37.27766 27.55355 1727 ft 156 kts 104°
2026-04-27 17:53 37.27461 27.56644 1507 ft 149 kts 104°
2026-04-27 17:53 37.27168 27.57882 1293 ft 147 kts 105°
2026-04-27 17:53 37.26875 27.59113 1088 ft 147 kts 104°
2026-04-27 17:54 37.26584 27.60336 889 ft 145 kts 105°
2026-04-27 17:54 37.26304 27.61537 648 ft 143 kts 108°
2026-04-27 17:54 37.26030 27.62713 456 ft 138 kts 109°
2026-04-27 17:54 37.25753 27.63874 224 ft 138 kts 111°
2026-04-27 17:55 37.25471 27.65028 35 ft 138 kts 110°
2026-04-27 17:55 37.25225 27.66050 20 ft 99 kts 107°
2026-04-27 17:55 37.25075 27.66675 19 ft 50 kts 107°
2026-04-27 17:55 37.25007 27.66955 21 ft 29 kts 107°
2026-04-27 17:56 37.24950 27.67196 25 ft 28 kts 108°
2026-04-27 17:56 37.24869 27.67414 25 ft 28 kts 123°
2026-04-27 17:56 37.24740 27.67589 26 ft 28 kts 137°
2026-04-27 17:56 37.24578 27.67653 26 ft 27 kts 197°
2026-04-27 17:57 37.24521 27.67556 26 ft 18 kts 286°
2026-04-27 17:57 37.24571 27.67347 23 ft 27 kts 286°
2026-04-27 17:57 37.24628 27.67110 22 ft 28 kts 287°
2026-04-27 17:57 37.24684 27.66872 22 ft 28 kts 287°
2026-04-27 17:58 37.24741 27.66631 20 ft 26 kts 287°
2026-04-27 17:58 37.24729 27.66504 19 ft 11 kts 216°
2026-04-27 17:58 37.24704 27.66481 21 ft 0 kts 217°